Regional Weather Roundup
Issued by NWS Sterling, VA

Home | Current Version | Previous Version | Graphics & Text | Print | Product List | Glossary On
Versions: 1 2 3 4 5 6 7 8 9 10 11 12 13 14 15 16 17 18 19 20 21 22 23 24 25 26 27
000
ASUS41 KLWX 101410
RWRLWX

REGIONAL WEATHER ROUNDUP
NATIONAL WEATHER SERVICE BALTIMORE MD/WASHINGTON DC
900 AM EST SAT DEC 10 2016

Note: "FAIR" indicates few or no clouds below 12,000 feet
with no significant weather and/or obstructions to visibility.
 TC=TEMPERATURE CELSIUS

 * =Non NWS site. Station does not report precipitation (e.g. rain,
    snow, etc.), thunder, or fog.

DCZ001-MDZ009-015-VAZ040>042-051-053>054-101500-
WASHINGTON METRO

CITY           SKY/WX    TMP DP  RH WIND       PRES   REMARKS
WASHINGTON NAT MOSUNNY   33  15  47 NW8G18    30.51S WCI  26
DULLES         MOSUNNY   30  14  51 NW8       30.50S WCI  22
ANDREWS AFB    SUNNY     31  14  49 NW14      30.48S WCI  21
QUANTICO       SUNNY     30  18  60 CALM      30.53S
COLLEGE PARK*  SUNNY     32  14  47 W9        30.49S WCI  24
LEESBURG*      SUNNY     32  19  59 NW14G20   30.50R WCI  22
MANASSAS*      SUNNY    N/A N/A N/A CALM      30.52S
GAITHERSBURG*  MOSUNNY   28  14  54 W8        30.51R WCI  20

$$

MDZ006>007-011-014-101500-
BALTIMORE METRO

CITY           SKY/WX    TMP DP  RH WIND       PRES   REMARKS
BWI AIRPORT    MOSUNNY   31  18  58 W12       30.48R WCI  22
MD SCIENCE CTR   N/A     33  15  47 MISG      30.49R
MARTIN STATE   MOSUNNY   34  19  55 W14       30.49S WCI  24
ANNAPOLIS      SUNNY     33  17  51 W10       30.49S WCI  25
FORT MEADE*    SUNNY     30  19  64 W9        30.51S WCI  22

$$

MDZ012-015-019>023-101500-
MARYLAND EASTERN SHORE

CITY           SKY/WX    TMP DP  RH WIND       PRES   REMARKS
OCEAN CITY     SUNNY     31  21  66 W8        30.50S WCI  23
SALISBURY      SUNNY     32  21  64 NW5       30.50R
BAY BRIDGE AP* SUNNY     32  19  59 MISG      30.49S
CAMBRIDGE*     SUNNY     32  19  59 NW9       30.49S WCI  24
EASTON*        SUNNY     34  18  51 N12G21    30.52S WCI  25

$$

MDZ017>025-101500-
SOUTHERN MARYLAND

CITY           SKY/WX    TMP DP  RH WIND       PRES   REMARKS
PATUXENT RIVER MOSUNNY   32  17  54 NW14      30.50S WCI  22
ST INIGOES     SUNNY     33  16  49 NW9       30.51R WCI  25
LEONARDTOWN*   SUNNY     32  18  55 W7        30.52S

$$

MDZ003>005-101500-
NORTH CENTRAL MARYLAND

CITY           SKY/WX    TMP DP  RH WIND       PRES   REMARKS
FREDERICK*     SUNNY     30  19  64 W6        30.52R
HAGERSTOWN APT SUNNY     29  14  53 W9        30.46R WCI  20
WESTMINSTER*     N/A     27  16  63 W6        30.44R

$$

MDZ501>502-101500-
WESTERN MARYLAND

CITY           SKY/WX    TMP DP  RH WIND       PRES   REMARKS
OAKLAND*       CLOUDY    14  10  85 W12G23    30.33R FOG     WCI   0
CUMBERLAND*    NOT AVBL

$$

VAZ025>031-101500-
SHENANDOAH VALLEY

CITY           SKY/WX    TMP DP  RH WIND       PRES   REMARKS
WINCHESTER*    SUNNY     28  10  47 W13G18    30.49R WCI  18
FRONT ROYAL*   FAIR      30  12  47 W8        30.49R WCI  23
LURAY*         FAIR      27  19  74 CALM      30.49R
NEW MARKET*    FAIR      23  14  69 S3        30.49R
STAUNTON*      SUNNY     21  14  73 CALM      30.50R
WAYNESBORO*    FAIR      22  10  60 SW8       30.46R WCI  13

$$

WVZ021-048>050-054>055-101500-
EASTERN WEST VIRGINIA PANHANDLE

CITY           SKY/WX    TMP DP  RH WIND       PRES   REMARKS
MARTINSBURG    SUNNY     29  14  53 W16       30.49R WCI  17
PETERSBURG*    CLOUDY    28  13  52 W10G20    30.51R WCI  19

$$

VAZ036>039-050-101500-
CENTRAL FOOTHILLS

CITY           SKY/WX    TMP DP  RH WIND       PRES   REMARKS
CHARLOTTESVILL SUNNY     28  12  51 VRB3      30.50R
CULPEPER*      SUNNY     31  14  49 CALM      30.52R
ORANGE*          N/A     30  19  64 CALM      30.52R
GORDONSVILLE*  FAIR      29  13  52 SW5       30.50R
WARRENTON*     FAIR      30  15  54 CALM      30.50R

$$

VAZ055>057-101500-
NORTH AND CENTRAL PIEDMONT

CITY           SKY/WX    TMP DP  RH WIND       PRES   REMARKS
FREDERICKSBRG* SUNNY     30  20  65 CALM      30.52S
STAFFORD*      SUNNY     29  16  57 CALM      30.55S

$$

NCZ024-NYZ072-PAZ021-071-VAZ022-071-101500-
OTHER REGIONAL OBSERVATIONS

CITY           SKY/WX    TMP DP  RH WIND       PRES   REMARKS
NEW YORK CITY  MOSUNNY   30  18  60 W8        30.41R WCI  22
PHILADELPHIA   PTSUNNY   31  17  56 NW10      30.46S WCI  22
PITTSBURGH     LGT SNOW  25  18  74 SW9       30.46R WCI  15
ROANOKE        SUNNY     25  13  60 W6        30.53R
RICHMOND       SUNNY     29  16  58 NW6       30.53R
RALEIGH        SUNNY     28  15  58 CALM      30.57R

$$

ANZ530>537-101500-
MARINE OBSERVATIONS

STATION/POSITION TIME  TEMP    WIND        PRES
                       AIR SEA DIR/SP/G
                 (UTC) (F)     (DEG/KT/KT) (MB)
THOMAS PT LIGHT  1400   32 46  300/ 12/ 14   N/A
BALT KEY BRIDGE  1342   31     260/ 11/ 13 1032.2S
COVE POINT       1342   30     330/ 11/ 15 1033.5R
LEWISETTA        1342   30 43  290/  6/  7 1033.1S
SOLOMONS ISLAND  1342   32 48  310/  7/ 13   N/A
PINEY POINT      1348          350/ 16/ 18   N/A

$$





USA.gov is the U.S. government's official web portal to all federal, state and local government web resources and services.